TimePST,TemperatureF,Dew PointF,Humidity,Sea Level PressureIn,VisibilityMPH,Wind Direction,Wind SpeedMPH,Gust SpeedMPH,PrecipitationIn,Events,Conditions,WindDirDegrees,DateUTC
12:55 AM,43.0,34.0,71,30.06,10.0,Calm,Calm,-,N/A,,Clear,0,2012-11-22 08:55:00
1:55 AM,41.0,34.0,76,30.07,10.0,North,3.5,-,N/A,,Clear,10,2012-11-22 09:55:00
2:55 AM,41.0,34.0,76,30.09,10.0,NE,9.2,-,N/A,,Clear,50,2012-11-22 10:55:00
3:55 AM,37.9,33.1,83,30.11,10.0,Calm,Calm,-,N/A,,Clear,0,2012-11-22 11:55:00
4:55 AM,37.0,32.0,82,30.13,10.0,NNW,4.6,-,N/A,,Clear,330,2012-11-22 12:55:00
5:55 AM,36.0,32.0,86,30.16,10.0,WNW,3.5,-,N/A,,Clear,290,2012-11-22 13:55:00
6:55 AM,37.0,33.1,86,30.18,10.0,WNW,4.6,-,N/A,,Clear,290,2012-11-22 14:55:00
7:55 AM,44.1,36.0,73,30.19,10.0,Calm,Calm,-,N/A,,Clear,0,2012-11-22 15:55:00
8:55 AM,48.9,37.9,66,30.21,10.0,Calm,Calm,-,N/A,,Clear,0,2012-11-22 16:55:00
9:55 AM,52.0,39.0,61,30.21,10.0,Calm,Calm,-,N/A,,Clear,0,2012-11-22 17:55:00
10:55 AM,57.9,39.0,49,30.19,10.0,Calm,Calm,-,N/A,,Clear,0,2012-11-22 18:55:00
11:55 AM,64.0,37.0,37,30.17,10.0,Calm,Calm,-,N/A,,Clear,0,2012-11-22 19:55:00
12:55 PM,68.0,35.1,30,30.14,10.0,Calm,Calm,-,N/A,,Clear,0,2012-11-22 20:55:00
1:55 PM,69.1,34.0,27,30.13,10.0,Calm,Calm,-,N/A,,Clear,0,2012-11-22 21:55:00
2:55 PM,71.1,33.1,25,30.12,10.0,WSW,4.6,-,N/A,,Clear,250,2012-11-22 22:55:00
3:55 PM,71.1,30.9,23,30.13,10.0,ESE,3.5,-,N/A,,Clear,110,2012-11-22 23:55:00
4:55 PM,64.9,30.9,28,30.15,10.0,Calm,Calm,-,N/A,,Clear,0,2012-11-23 00:55:00
5:55 PM,59.0,26.1,28,30.18,10.0,NE,8.1,-,N/A,,Clear,50,2012-11-23 01:55:00
6:55 PM,53.1,26.1,35,30.21,10.0,North,6.9,-,N/A,,Clear,350,2012-11-23 02:55:00
7:55 PM,51.1,25.0,36,30.22,10.0,Calm,Calm,-,N/A,,Clear,0,2012-11-23 03:55:00
8:55 PM,48.9,24.1,38,30.24,10.0,North,3.5,-,N/A,,Clear,360,2012-11-23 04:55:00
9:55 PM,48.0,25.0,41,30.25,10.0,North,4.6,-,N/A,,Clear,10,2012-11-23 05:55:00
10:55 PM,45.0,24.1,44,30.25,10.0,Calm,Calm,-,N/A,,Clear,0,2012-11-23 06:55:00
11:55 PM,43.0,21.9,43,30.24,10.0,Calm,Calm,-,N/A,,Clear,0,2012-11-23 07:55:00